Regional Weather Roundup
Issued by NWS

Home | Current Version | Previous Version | Graphics & Text | Print | Product List | Glossary On
Versions: 1 2 3 4 5 6 7 8 9 10 11 12 13 14 15 16 17 18 19 20 21 22 23 24 25 26 27 28 29 30 31 32 33 34 35 36 37 38 39 40 41 42 43 44 45 46 47 48 49 50
000
ASUS43 KBIS 300010
RWRND

NORTH DAKOTA REGIONAL WEATHER ROUNDUP
NATIONAL WEATHER SERVICE BISMARCK ND
700 PM CDT FRI AUG 29 2014

NOTE: "FAIR" INDICATES FEW OR NO CLOUDS BELOW 12,000 FEET WITH NO
SIGNIFICANT WEATHER AND/OR OBSTRUCTIONS TO VISIBILITY.


NDZ001>003-009>011-017-300100-
NORTHWEST NORTH DAKOTA

CITY           SKY/WX    TMP DP  RH WIND       PRES   REMARKS
WILLISTON      MOSUNNY   74  46  36 VRB3      29.96S
6HR MIN TEMP:  69; 6HR MAX TEMP:  74;

MINOT          PTSUNNY   68  50  52 N6        29.95R
MINOT AFB      SUNNY     69  50  51 N8        29.94S
$$

NDZ018>021-031>035-040>046-300100-
SOUTHWEST NORTH DAKOTA

CITY           SKY/WX    TMP DP  RH WIND       PRES   REMARKS
BISMARCK       CLOUDY    68  57  68 N10       29.94R
6HR MIN TEMP:  68; 6HR MAX TEMP:  71;

DICKINSON      MOSUNNY   68  54  60 NE12      29.97R
GARRISON         N/A     67  52  58 NE10      29.95S
6HR MIN TEMP:  65; 6HR MAX TEMP:  71;

HETTINGER ARPT MOSUNNY   66  54  65 N8        29.98S
$$

NDZ004>008-012>016-024-026-027-054-300100-
NORTHEAST NORTH DAKOTA

CITY           SKY/WX    TMP DP  RH WIND       PRES   REMARKS
GRAND FORKS    CLOUDY    63  59  87 N16       29.82R
GRND FRKS AFB  CLOUDY    61  59  94 N13G22    29.86R
DEVILS LAKE    CLOUDY    63  54  72 N9        29.90R
$$

NDZ022-023-025-028>030-036>039-047>053-300100-
SOUTHEAST NORTH DAKOTA

CITY           SKY/WX    TMP DP  RH WIND       PRES   REMARKS
FARGO          MOSUNNY   74  65  73 N8        29.76S
6HR MIN TEMP:  69; 6HR MAX TEMP:  77;

JAMESTOWN      CLOUDY    61  56  83 N20G25    29.88R
$$




USA.gov is the U.S. government's official web portal to all federal, state and local government web resources and services.